CCM29ST LFKJ-LFPO

Flight info

Callsign CCM29ST
Flight time 1h 34m
Altitude 34000
Route TORTU DCT ERTEV DCT ENOBA DCT ASTIG DCT AOSTA DCT ORSUD DCT MOLUS DCT UNKIR DCT DJL
Aircraft A320/M-SDE3FGHIRWY/LB1

Departure

Time 2026-04-26 18:25
Airport Ajaccio Napoléon Bonaparte airport (LFKJ)

Arrival

Time 2026-04-26 19:59
Airport Paris-Orly Airport (LFPO)
Time Latitude Longitude Altitude Speed Heading
2026-04-26 18:07 41.91956 8.79576 26 ft 0 kts 345°
2026-04-26 18:21 41.91962 8.79625 30 ft 7 kts 71°
2026-04-26 18:21 41.91994 8.79667 27 ft 8 kts 30°
2026-04-26 18:21 41.92076 8.79719 30 ft 15 kts 25°
2026-04-26 18:21 41.92165 8.79775 28 ft 16 kts 25°
2026-04-26 18:22 41.92295 8.79855 28 ft 25 kts 24°
2026-04-26 18:22 41.92462 8.79959 26 ft 27 kts 25°
2026-04-26 18:22 41.92635 8.80067 28 ft 28 kts 24°
2026-04-26 18:22 41.92800 8.80193 27 ft 26 kts 41°
2026-04-26 18:23 41.92916 8.80347 29 ft 20 kts 46°
2026-04-26 18:23 41.92961 8.80480 31 ft 13 kts 98°
2026-04-26 18:23 41.92913 8.80559 31 ft 11 kts 171°
2026-04-26 18:23 41.92874 8.80547 31 ft 0 kts 204°
2026-04-26 18:24 41.92812 8.80509 29 ft 41 kts 205°
2026-04-26 18:24 41.92324 8.80203 22 ft 110 kts 205°
2026-04-26 18:24 41.91465 8.79670 65 ft 154 kts 205°
2026-04-26 18:25 41.90522 8.79043 714 ft 151 kts 214°
2026-04-26 18:25 41.89866 8.77920 1182 ft 161 kts 244°
2026-04-26 18:25 41.89346 8.76492 1461 ft 181 kts 242°
2026-04-26 18:25 41.88738 8.74869 1648 ft 211 kts 243°
2026-04-26 18:26 41.88043 8.73018 2122 ft 227 kts 242°
2026-04-26 18:26 41.87285 8.71146 2919 ft 229 kts 240°
2026-04-26 18:26 41.86509 8.69273 3744 ft 231 kts 240°
2026-04-26 18:26 41.85844 8.67311 4513 ft 234 kts 260°
2026-04-26 18:27 41.86063 8.65169 5227 ft 238 kts 299°
2026-04-26 18:27 41.87184 8.63533 5874 ft 243 kts 320°
2026-04-26 18:27 41.88505 8.62124 6672 ft 243 kts 322°
2026-04-26 18:27 41.89928 8.60878 7386 ft 247 kts 338°
2026-04-26 18:28 41.91607 8.60381 8083 ft 251 kts 359°
2026-04-26 18:28 41.93399 8.60776 8405 ft 274 kts 23°
2026-04-26 18:28 41.95142 8.61971 8929 ft 287 kts 28°
2026-04-26 18:28 41.96924 8.63230 9677 ft 292 kts 27°
2026-04-26 18:29 41.98740 8.64494 10358 ft 299 kts 27°
2026-04-26 18:29 42.00659 8.65823 10606 ft 322 kts 27°
2026-04-26 18:29 42.02711 8.67242 10898 ft 340 kts 27°
2026-04-26 18:29 42.04840 8.68719 11506 ft 347 kts 27°
2026-04-26 18:30 42.06995 8.70212 12200 ft 350 kts 27°
2026-04-26 18:30 42.09174 8.71721 12906 ft 354 kts 27°
2026-04-26 18:30 42.11374 8.73246 13620 ft 357 kts 27°
2026-04-26 18:30 42.13594 8.74788 14278 ft 361 kts 26°
2026-04-26 18:31 42.15833 8.76347 14895 ft 364 kts 27°
2026-04-26 18:31 42.18092 8.77926 15491 ft 367 kts 27°
2026-04-26 18:31 42.20370 8.79518 16081 ft 371 kts 27°
2026-04-26 18:31 42.22672 8.81124 16658 ft 374 kts 26°
2026-04-26 18:32 42.25090 8.82443 17231 ft 377 kts 15°
2026-04-26 18:32 42.27662 8.83126 17809 ft 379 kts
2026-04-26 18:32 42.30299 8.83423 18391 ft 382 kts
2026-04-26 18:32 42.32962 8.83720 18905 ft 386 kts
2026-04-26 18:33 42.35645 8.84023 19439 ft 388 kts
2026-04-26 18:33 42.38347 8.84324 19964 ft 391 kts
2026-04-26 18:33 42.41069 8.84626 20472 ft 394 kts
2026-04-26 18:33 42.43815 8.84932 21007 ft 396 kts
2026-04-26 18:34 42.46571 8.85244 21527 ft 399 kts
2026-04-26 18:34 42.49344 8.85561 22045 ft 402 kts
2026-04-26 18:34 42.52138 8.85880 22550 ft 405 kts
2026-04-26 18:34 42.54957 8.86200 23044 ft 407 kts
2026-04-26 18:35 42.57791 8.86524 23528 ft 410 kts
2026-04-26 18:35 42.60645 8.86849 23948 ft 413 kts
2026-04-26 18:35 42.63509 8.87174 24343 ft 415 kts
2026-04-26 18:35 42.66394 8.87502 24736 ft 417 kts
2026-04-26 18:36 42.69286 8.87832 25117 ft 419 kts
2026-04-26 18:36 42.72200 8.88163 25487 ft 420 kts
2026-04-26 18:36 42.75120 8.88494 25847 ft 422 kts
2026-04-26 18:36 42.78056 8.88825 26205 ft 424 kts
2026-04-26 18:37 42.81004 8.89157 26556 ft 426 kts
2026-04-26 18:37 42.83967 8.89495 26904 ft 428 kts
2026-04-26 18:37 42.86948 8.89838 27246 ft 430 kts
2026-04-26 18:37 42.89938 8.90180 27584 ft 432 kts
2026-04-26 18:38 42.92939 8.90524 27920 ft 434 kts
2026-04-26 18:38 42.95961 8.90872 28253 ft 436 kts
2026-04-26 18:38 42.98986 8.91220 28564 ft 438 kts
2026-04-26 18:38 43.02027 8.91569 28878 ft 440 kts
2026-04-26 18:39 43.05043 8.91914 29179 ft 441 kts
2026-04-26 18:39 43.08108 8.92269 29472 ft 443 kts
2026-04-26 18:39 43.11186 8.92629 29754 ft 445 kts
2026-04-26 18:39 43.14272 8.92985 30032 ft 446 kts
2026-04-26 18:40 43.17374 8.93339 30287 ft 448 kts
2026-04-26 18:40 43.20484 8.93696 30506 ft 450 kts
2026-04-26 18:40 43.23609 8.94056 30726 ft 451 kts
2026-04-26 18:40 43.26736 8.94418 30933 ft 452 kts
2026-04-26 18:41 43.29874 8.94782 31160 ft 453 kts
2026-04-26 18:41 43.33013 8.95147 31459 ft 452 kts
2026-04-26 18:41 43.36135 8.95510 31757 ft 451 kts
2026-04-26 18:41 43.39259 8.95857 32051 ft 450 kts
2026-04-26 18:42 43.42385 8.96046 32330 ft 448 kts 359°
2026-04-26 18:42 43.45500 8.96075 32612 ft 447 kts 357°
2026-04-26 18:42 43.48615 8.96010 32902 ft 446 kts 356°
2026-04-26 18:42 43.51712 8.95918 33188 ft 445 kts 356°
2026-04-26 18:43 43.54805 8.95839 33475 ft 445 kts 356°
2026-04-26 18:43 43.57827 8.95227 33774 ft 437 kts 338°
2026-04-26 18:43 43.60584 8.93489 34019 ft 434 kts 328°
2026-04-26 18:43 43.63260 8.91571 34141 ft 434 kts 337°
2026-04-26 18:44 43.68930 8.88843 34162 ft 430 kts 339°
2026-04-26 18:44 43.74365 8.85576 34163 ft 424 kts 321°
2026-04-26 18:45 43.79105 8.80710 34164 ft 425 kts 323°
2026-04-26 18:45 43.83985 8.76064 34159 ft 426 kts 324°
2026-04-26 18:46 43.88874 8.71397 34154 ft 426 kts 323°
2026-04-26 18:46 43.93715 8.66653 34150 ft 427 kts 323°
2026-04-26 18:47 43.98552 8.61859 34147 ft 427 kts 323°
2026-04-26 18:47 44.03396 8.57061 34141 ft 428 kts 323°
2026-04-26 18:48 44.08251 8.52250 34137 ft 429 kts 323°
2026-04-26 18:48 44.13105 8.47436 34141 ft 429 kts 323°
2026-04-26 18:49 44.17968 8.42612 34145 ft 429 kts 322°
2026-04-26 18:49 44.22820 8.37786 34148 ft 428 kts 322°
2026-04-26 18:50 44.27768 8.33186 34152 ft 430 kts 331°
2026-04-26 18:50 44.33488 8.30695 34155 ft 435 kts 351°
2026-04-26 18:51 44.39551 8.30427 34156 ft 436 kts 356°
2026-04-26 18:51 44.45613 8.30274 34147 ft 436 kts 356°
2026-04-26 18:52 44.51647 8.30112 34141 ft 436 kts 356°
2026-04-26 18:52 44.57752 8.29959 34131 ft 436 kts 356°
2026-04-26 18:53 44.63825 8.29815 34128 ft 436 kts 356°
2026-04-26 18:53 44.69851 8.29661 34122 ft 436 kts 355°
2026-04-26 18:54 44.75924 8.29498 34119 ft 436 kts 355°
2026-04-26 18:54 44.81993 8.29337 34113 ft 437 kts 355°
2026-04-26 18:55 44.88074 8.29187 34102 ft 437 kts 354°
2026-04-26 18:55 44.93970 8.27666 34102 ft 428 kts 336°
2026-04-26 18:56 44.99151 8.23662 34092 ft 419 kts 319°
2026-04-26 18:56 45.03744 8.18643 34087 ft 420 kts 319°
2026-04-26 18:57 45.06841 8.15272 34085 ft 421 kts 319°
2026-04-26 18:57 45.13022 8.08538 34080 ft 421 kts 319°
2026-04-26 18:58 45.17666 8.03450 34090 ft 422 kts 319°
2026-04-26 18:58 45.22311 7.98352 34095 ft 422 kts 319°
2026-04-26 18:59 45.26988 7.93212 34100 ft 423 kts 319°
2026-04-26 18:59 45.31613 7.88128 34105 ft 423 kts 320°
2026-04-26 19:00 45.36261 7.82994 34109 ft 423 kts 320°
2026-04-26 19:00 45.40912 7.77843 34114 ft 424 kts 320°
2026-04-26 19:01 45.45563 7.72691 34119 ft 424 kts 320°
2026-04-26 19:01 45.50216 7.67528 34136 ft 424 kts 320°
2026-04-26 19:02 45.54864 7.62355 34129 ft 424 kts 320°
2026-04-26 19:02 45.57973 7.58886 34129 ft 424 kts 320°
2026-04-26 19:03 45.64154 7.51978 34121 ft 424 kts 320°
2026-04-26 19:03 45.68046 7.47623 34110 ft 424 kts 321°
2026-04-26 19:04 45.72674 7.42430 34108 ft 424 kts 321°
2026-04-26 19:04 45.77287 7.37230 34114 ft 424 kts 321°
2026-04-26 19:05 45.84344 7.29611 34128 ft 423 kts 324°
2026-04-26 19:06 45.89187 7.24807 34140 ft 423 kts 325°
2026-04-26 19:06 45.94013 7.19988 34162 ft 422 kts 324°
2026-04-26 19:07 45.98806 7.15112 34177 ft 422 kts 324°
2026-04-26 19:07 46.03583 7.10205 34172 ft 422 kts 324°
2026-04-26 19:08 46.08381 7.05268 34168 ft 421 kts 324°
2026-04-26 19:08 46.13148 7.00357 34166 ft 421 kts 324°
2026-04-26 19:09 46.17903 6.95455 34174 ft 420 kts 324°
2026-04-26 19:09 46.22655 6.90548 34172 ft 420 kts 325°
2026-04-26 19:10 46.27397 6.85645 34173 ft 419 kts 325°
2026-04-26 19:10 46.32099 6.80764 34181 ft 418 kts 325°
2026-04-26 19:11 46.36818 6.75852 34171 ft 417 kts 325°
2026-04-26 19:11 46.41560 6.70905 34169 ft 417 kts 324°
2026-04-26 19:12 46.45561 6.64853 34171 ft 419 kts 305°
2026-04-26 19:12 46.48504 6.57533 34166 ft 420 kts 302°
2026-04-26 19:13 46.51416 6.50169 34161 ft 420 kts 302°
2026-04-26 19:13 46.54304 6.42854 34157 ft 420 kts 302°
2026-04-26 19:14 46.57222 6.35445 34163 ft 420 kts 302°
2026-04-26 19:14 46.60111 6.28077 34163 ft 419 kts 302°
2026-04-26 19:15 46.62988 6.20712 34164 ft 419 kts 302°
2026-04-26 19:15 46.65858 6.13337 34168 ft 419 kts 302°
2026-04-26 19:16 46.68708 6.06010 34169 ft 418 kts 302°
2026-04-26 19:16 46.71558 5.98666 34177 ft 418 kts 302°
2026-04-26 19:17 46.74421 5.91271 34166 ft 417 kts 302°
2026-04-26 19:17 46.77262 5.83913 34169 ft 416 kts 302°
2026-04-26 19:18 46.80090 5.76554 34161 ft 416 kts 302°
2026-04-26 19:18 46.83575 5.69938 34153 ft 410 kts 319°
2026-04-26 19:19 46.87746 5.64245 34154 ft 410 kts 318°
2026-04-26 19:19 46.91910 5.58534 34153 ft 410 kts 318°
2026-04-26 19:20 46.96064 5.52821 34159 ft 410 kts 318°
2026-04-26 19:20 47.00215 5.47091 34155 ft 410 kts 318°
2026-04-26 19:21 47.04357 5.41354 34158 ft 410 kts 318°
2026-04-26 19:21 47.08500 5.35623 34156 ft 410 kts 318°
2026-04-26 19:22 47.12646 5.29876 34156 ft 410 kts 318°
2026-04-26 19:22 47.16783 5.24122 34160 ft 410 kts 317°
2026-04-26 19:23 47.20917 5.18351 34158 ft 410 kts 317°
2026-04-26 19:23 47.25057 5.12567 33961 ft 414 kts 317°
2026-04-26 19:23 47.27140 5.09653 33352 ft 411 kts 317°
2026-04-26 19:24 47.29167 5.06701 32801 ft 407 kts 316°
2026-04-26 19:24 47.31121 5.03725 32252 ft 403 kts 315°
2026-04-26 19:24 47.34929 4.97748 31186 ft 396 kts 314°
2026-04-26 19:25 47.36810 4.94794 30667 ft 393 kts 314°
2026-04-26 19:25 47.38068 4.92830 30320 ft 391 kts 315°
2026-04-26 19:25 47.40548 4.88983 29582 ft 387 kts 315°
2026-04-26 19:25 47.42419 4.86095 29080 ft 382 kts 315°
2026-04-26 19:26 47.44252 4.83272 28591 ft 378 kts 314°
2026-04-26 19:26 47.46065 4.80472 28100 ft 375 kts 314°
2026-04-26 19:26 47.47855 4.77695 27642 ft 372 kts 314°
2026-04-26 19:26 47.49629 4.74937 27171 ft 369 kts 314°
2026-04-26 19:27 47.51391 4.72199 26943 ft 370 kts 314°
2026-04-26 19:27 47.53150 4.69466 26698 ft 372 kts 314°
2026-04-26 19:27 47.54926 4.66703 26462 ft 372 kts 314°
2026-04-26 19:27 47.56703 4.63929 26223 ft 371 kts 313°
2026-04-26 19:28 47.58477 4.61154 25979 ft 370 kts 313°
2026-04-26 19:28 47.60249 4.58386 25738 ft 369 kts 313°
2026-04-26 19:28 47.62012 4.55629 25498 ft 369 kts 313°
2026-04-26 19:28 47.63793 4.52838 25257 ft 368 kts 313°
2026-04-26 19:29 47.65550 4.50081 25021 ft 367 kts 313°
2026-04-26 19:29 47.67279 4.47372 24784 ft 366 kts 313°
2026-04-26 19:29 47.69032 4.44627 24548 ft 366 kts 313°
2026-04-26 19:29 47.70778 4.41890 24309 ft 365 kts 313°
2026-04-26 19:30 47.72519 4.39157 24072 ft 364 kts 313°
2026-04-26 19:30 47.74257 4.36422 23841 ft 363 kts 313°
2026-04-26 19:30 47.75988 4.33691 23575 ft 362 kts 313°
2026-04-26 19:30 47.77150 4.31855 23410 ft 362 kts 313°
2026-04-26 19:31 47.79450 4.28218 23100 ft 360 kts 313°
2026-04-26 19:31 47.81162 4.25507 22863 ft 359 kts 313°
2026-04-26 19:31 47.82868 4.22800 22630 ft 358 kts 313°
2026-04-26 19:31 47.84565 4.20109 22399 ft 356 kts 313°
2026-04-26 19:32 47.86257 4.17420 22162 ft 355 kts 311°
2026-04-26 19:32 47.87713 4.14462 21932 ft 354 kts 299°
2026-04-26 19:32 47.88714 4.11125 21706 ft 353 kts 288°
2026-04-26 19:32 47.89292 4.07576 21471 ft 353 kts 283°
2026-04-26 19:33 47.89808 4.04008 21243 ft 352 kts 283°
2026-04-26 19:33 47.90327 4.00444 21015 ft 351 kts 283°
2026-04-26 19:33 47.90847 3.96901 20787 ft 350 kts 283°
2026-04-26 19:33 47.91366 3.93365 20562 ft 349 kts 283°
2026-04-26 19:34 47.91881 3.89834 20331 ft 348 kts 283°
2026-04-26 19:34 47.92388 3.86311 20099 ft 347 kts 283°
2026-04-26 19:34 47.92894 3.82793 19877 ft 346 kts 283°
2026-04-26 19:34 47.93398 3.79289 19648 ft 345 kts 283°
2026-04-26 19:35 47.93901 3.75796 19426 ft 344 kts 283°
2026-04-26 19:35 47.94402 3.72313 19206 ft 343 kts 283°
2026-04-26 19:35 47.94900 3.68837 18982 ft 342 kts 283°
2026-04-26 19:35 47.95395 3.65367 18754 ft 341 kts 283°
2026-04-26 19:36 47.95884 3.61912 18540 ft 340 kts 283°
2026-04-26 19:36 47.96050 3.60792 18453 ft 340 kts 285°
2026-04-26 19:36 47.97655 3.55464 17967 ft 338 kts 305°
2026-04-26 19:36 47.99194 3.52803 17477 ft 338 kts 315°
2026-04-26 19:37 48.00848 3.50319 17022 ft 337 kts 314°
2026-04-26 19:37 48.02488 3.47828 16565 ft 336 kts 314°
2026-04-26 19:37 48.04121 3.45328 16118 ft 336 kts 314°
2026-04-26 19:37 48.05741 3.42842 15720 ft 334 kts 314°
2026-04-26 19:38 48.07364 3.40357 15332 ft 332 kts 314°
2026-04-26 19:38 48.08979 3.37887 14890 ft 332 kts 314°
2026-04-26 19:38 48.10565 3.35460 14403 ft 330 kts 314°
2026-04-26 19:38 48.12149 3.33027 13879 ft 324 kts 314°
2026-04-26 19:39 48.13712 3.30622 13424 ft 321 kts 314°
2026-04-26 19:39 48.15263 3.28233 12993 ft 319 kts 314°
2026-04-26 19:39 48.16806 3.25857 12567 ft 317 kts 314°
2026-04-26 19:39 48.18327 3.23518 12193 ft 307 kts 314°
2026-04-26 19:40 48.19780 3.21289 11857 ft 298 kts 314°
2026-04-26 19:40 48.21226 3.19067 11608 ft 295 kts 314°
2026-04-26 19:40 48.22655 3.16871 11358 ft 293 kts 314°
2026-04-26 19:40 48.24075 3.14688 11117 ft 292 kts 314°
2026-04-26 19:41 48.25487 3.12512 10878 ft 291 kts 314°
2026-04-26 19:41 48.26899 3.10330 10636 ft 290 kts 314°
2026-04-26 19:41 48.28303 3.08158 10450 ft 290 kts 314°
2026-04-26 19:41 48.28770 3.07413 10361 ft 289 kts 310°
2026-04-26 19:42 48.30431 3.03111 10212 ft 288 kts 293°
2026-04-26 19:42 48.31231 3.00348 10220 ft 289 kts 294°
2026-04-26 19:42 48.32050 2.97551 10225 ft 289 kts 294°
2026-04-26 19:42 48.32861 2.94788 10220 ft 289 kts 294°
2026-04-26 19:43 48.33668 2.92029 10222 ft 288 kts 294°
2026-04-26 19:43 48.34201 2.90203 10217 ft 289 kts 294°
2026-04-26 19:43 48.35002 2.87435 10212 ft 289 kts 293°
2026-04-26 19:43 48.35796 2.84666 10214 ft 289 kts 293°
2026-04-26 19:44 48.36591 2.81892 10217 ft 289 kts 293°
2026-04-26 19:44 48.37384 2.79120 10100 ft 287 kts 293°
2026-04-26 19:44 48.38173 2.76364 9688 ft 286 kts 293°
2026-04-26 19:44 48.38953 2.73633 9103 ft 284 kts 293°
2026-04-26 19:45 48.39740 2.70868 8447 ft 286 kts 293°
2026-04-26 19:45 48.40512 2.68151 8263 ft 281 kts 293°
2026-04-26 19:45 48.41280 2.65447 8216 ft 282 kts 293°
2026-04-26 19:45 48.42051 2.62731 8223 ft 282 kts 293°
2026-04-26 19:46 48.42819 2.60024 8216 ft 282 kts 293°
2026-04-26 19:46 48.43589 2.57306 8221 ft 282 kts 293°
2026-04-26 19:46 48.44360 2.54587 8223 ft 282 kts 293°
2026-04-26 19:46 48.45130 2.51870 7951 ft 280 kts 293°
2026-04-26 19:47 48.45887 2.49195 7543 ft 278 kts 293°
2026-04-26 19:47 48.46399 2.47389 7286 ft 277 kts 293°
2026-04-26 19:47 48.47393 2.43866 6933 ft 272 kts 293°
2026-04-26 19:47 48.48069 2.41247 6691 ft 265 kts 286°
2026-04-26 19:48 48.48499 2.38567 6444 ft 263 kts 282°
2026-04-26 19:48 48.48880 2.35873 6188 ft 263 kts 282°
2026-04-26 19:48 48.49255 2.33178 5938 ft 262 kts 282°
2026-04-26 19:48 48.49628 2.30492 5678 ft 262 kts 282°
2026-04-26 19:49 48.50005 2.27771 5426 ft 261 kts 282°
2026-04-26 19:49 48.50374 2.25099 5175 ft 260 kts 282°
2026-04-26 19:49 48.50732 2.22489 4905 ft 254 kts 282°
2026-04-26 19:49 48.51085 2.19919 4646 ft 248 kts 282°
2026-04-26 19:50 48.51433 2.17362 4386 ft 243 kts 282°
2026-04-26 19:50 48.51763 2.14918 4137 ft 239 kts 282°
2026-04-26 19:50 48.52090 2.12477 4017 ft 230 kts 282°
2026-04-26 19:50 48.52406 2.10128 4011 ft 228 kts 282°
2026-04-26 19:51 48.52719 2.07797 4015 ft 222 kts 282°
2026-04-26 19:51 48.53022 2.05537 4014 ft 218 kts 282°
2026-04-26 19:51 48.53322 2.03297 4021 ft 218 kts 283°
2026-04-26 19:51 48.53926 2.01244 4011 ft 214 kts 314°
2026-04-26 19:52 48.55137 2.00109 4010 ft 199 kts 350°
2026-04-26 19:52 48.56475 1.99898 4022 ft 191 kts
2026-04-26 19:52 48.57793 1.99877 4038 ft 190 kts
2026-04-26 19:52 48.59104 1.99941 4010 ft 185 kts 11°
2026-04-26 19:53 48.60300 2.00562 4004 ft 182 kts 31°
2026-04-26 19:53 48.61260 2.01778 4012 ft 180 kts 52°
2026-04-26 19:53 48.61907 2.03395 4018 ft 180 kts 62°
2026-04-26 19:53 48.62504 2.05058 4012 ft 180 kts 62°
2026-04-26 19:54 48.63102 2.06727 3935 ft 181 kts 62°
2026-04-26 19:54 48.63699 2.08394 3744 ft 179 kts 62°
2026-04-26 19:54 48.64290 2.10046 3528 ft 177 kts 62°
2026-04-26 19:54 48.64871 2.11671 3292 ft 173 kts 62°
2026-04-26 19:55 48.65432 2.13242 3060 ft 165 kts 62°
2026-04-26 19:55 48.65969 2.14746 2845 ft 160 kts 62°
2026-04-26 19:55 48.66489 2.16202 2645 ft 152 kts 62°
2026-04-26 19:55 48.66968 2.17546 2440 ft 140 kts 62°
2026-04-26 19:56 48.67429 2.18840 2248 ft 136 kts 62°
2026-04-26 19:56 48.67875 2.20095 2065 ft 134 kts 62°
2026-04-26 19:56 48.68315 2.21334 1887 ft 134 kts 62°
2026-04-26 19:56 48.68758 2.22577 1713 ft 134 kts 62°
2026-04-26 19:57 48.69203 2.23824 1530 ft 135 kts 61°
2026-04-26 19:57 48.69499 2.24648 1415 ft 135 kts 61°
2026-04-26 19:57 48.69798 2.25533 1247 ft 134 kts 62°
2026-04-26 19:58 48.70243 2.26783 1076 ft 135 kts 59°
2026-04-26 19:58 48.70693 2.28023 922 ft 136 kts 60°
2026-04-26 19:58 48.71137 2.29271 723 ft 135 kts 60°
2026-04-26 19:58 48.71578 2.30507 550 ft 135 kts 60°
2026-04-26 19:59 48.72025 2.31772 364 ft 134 kts 60°
2026-04-26 19:59 48.72445 2.32956 284 ft 110 kts 62°
2026-04-26 19:59 48.72721 2.33741 289 ft 60 kts 65°
2026-04-26 19:59 48.72779 2.34122 286 ft 20 kts 82°
2026-04-26 20:00 48.72797 2.34311 282 ft 19 kts 82°
2026-04-26 20:00 48.72816 2.34511 282 ft 20 kts 82°